Terug naar catalogus

FENGYUN 1C DEB

ActiefSSO
NORAD 37439·DEBRIS·🇨🇳 China

Gelanceerd May 10, 1999 vanaf Taiyuan Satellite Launch Center

Loading…

Volgende Passages (komende 24 uur)

TLE

VerouderendSource: Space-Track

Epoch: Sep 8, 2026, 12:12 UTC

1 37439U 99025EHH 26251.50853392  .00001926  00000-0  92158-3 0  9998
2 37439  99.0131 344.4028 0057960  54.6917  10.2283 14.19434125650871

Volg FENGYUN 1C DEB in realtime met AllMySat

Download on the App Store